When you browse on this site, cookies collect data to enhance your experience and personalize the content and advertising you see.
Visit our Privacy Policy to learn more. By continuing to use the site, you agree to this use of cookies and data.
  • în România
  • Lista ţărilor
  • Pe 7 zile
  • Temperatura apei
  • Meteo pe hartă
  • Widget-uri
  • user-avatar
    Intrare

    Meteo pe oră la Iokogama

    Astăzi, 18 Ianuarie, Sâmbătă

    Timp Temperatura Precipitaţii Vânt Presiune Umiditate
    00:00 +5°C° 0.2 mm 8 m/s 757 mmHg 63%
    01:00 +3°C° 0.5 mm 9 m/s 756 mmHg 68%
    02:00 +2°C° 0.5 mm 9 m/s 756 mmHg 73%
    03:00 +2°C° 0 mm 9 m/s 755 mmHg 74%
    04:00 +2°C° 0.7 mm 9 m/s 755 mmHg 75%
    05:00 +2°C° 0.7 mm 10 m/s 754 mmHg 75%
    06:00 +2°C° 0.7 mm 10 m/s 754 mmHg 76%
    07:00 +1°C° 1.1 mm 10 m/s 754 mmHg 78%
    08:00 +1°C° 1.1 mm 10 m/s 754 mmHg 79%
    09:00 0°C° 0 mm 9 m/s 755 mmHg 86%
    10:00 +1°C° 0.5 mm 10 m/s 755 mmHg 79%
    11:00 +1°C° 0.5 mm 10 m/s 754 mmHg 72%
    12:00 +1°C° 0.5 mm 11 m/s 754 mmHg 65%
    13:00 +1°C° 0.6 mm 10 m/s 753 mmHg 70%
    14:00 +1°C° 0.6 mm 9 m/s 753 mmHg 75%
    15:00 +1°C° 0.6 mm 8 m/s 753 mmHg 80%
    16:00 +1°C° 0.1 mm 8 m/s 754 mmHg 79%
    17:00 +1°C° 0.1 mm 8 m/s 754 mmHg 77%
    18:00 +1°C° 0.1 mm 8 m/s 755 mmHg 75%
    19:00 +2°C° 0 mm 7 m/s 755 mmHg 77%
    20:00 +2°C° 0 mm 7 m/s 755 mmHg 78%
    21:00 0°C° 0 mm 7 m/s 756 mmHg 79%
    22:00 +2°C° 0 mm 7 m/s 756 mmHg 78%
    23:00 +2°C° 0 mm 6 m/s 756 mmHg 78%

    Mâine, 19 Ianuarie, Duminică

    Timp Temperatura Precipitaţii Vânt Presiune Umiditate
    00:00 +2°C° 0 mm 6 m/s 756 mmHg 77%
    01:00 +1°C° 0 mm 5 m/s 757 mmHg 76%
    02:00 +1°C° 0 mm 5 m/s 757 mmHg 76%
    03:00 +1°C° 0 mm 5 m/s 757 mmHg 75%
    04:00 +1°C° 0 mm 4 m/s 757 mmHg 75%
    05:00 +1°C° 0 mm 4 m/s 757 mmHg 75%
    06:00 0°C° 0 mm 4 m/s 758 mmHg 74%
    07:00 +1°C° 0 mm 4 m/s 758 mmHg 71%
    08:00 +3°C° 0 mm 4 m/s 758 mmHg 67%
    09:00 +4°C° 0 mm 3 m/s 758 mmHg 63%
    10:00 +4°C° 0 mm 3 m/s 758 mmHg 60%
    11:00 +6°C° 0 mm 2 m/s 758 mmHg 57%
    12:00 +7°C° 0 mm 2 m/s 757 mmHg 54%
    13:00 +7°C° 0 mm 2 m/s 757 mmHg 55%
    14:00 +8°C° 0 mm 2 m/s 757 mmHg 55%
    15:00 +8°C° 0 mm 2 m/s 757 mmHg 56%
    16:00 +7°C° 0 mm 3 m/s 757 mmHg 61%
    17:00 +6°C° 0 mm 4 m/s 758 mmHg 66%
    18:00 +6°C° 0 mm 5 m/s 758 mmHg 72%
    19:00 +6°C° 0 mm 5 m/s 758 mmHg 71%
    20:00 +6°C° 0 mm 5 m/s 758 mmHg 70%
    21:00 +6°C° 0 mm 5 m/s 758 mmHg 70%
    22:00 +4°C° 0 mm 6 m/s 757 mmHg 68%
    23:00 +3°C° 0 mm 6 m/s 757 mmHg 67%

    Poimâine, 20 Ianuarie, Luni

    Timp Temperatura Precipitaţii Vânt Presiune Umiditate
    00:00 +3°C° 0 mm 7 m/s 756 mmHg 66%
    01:00 +3°C° 0 mm 6 m/s 756 mmHg 65%
    02:00 +2°C° 0 mm 5 m/s 756 mmHg 64%
    03:00 +3°C° 0 mm 4 m/s 756 mmHg 63%
    04:00 +3°C° 0 mm 4 m/s 756 mmHg 62%
    05:00 +3°C° 0 mm 3 m/s 756 mmHg 62%
    06:00 +3°C° 0 mm 3 m/s 756 mmHg 61%
    07:00 +4°C° 0 mm 3 m/s 756 mmHg 58%
    08:00 +6°C° 0 mm 2 m/s 756 mmHg 54%
    09:00 +7°C° 0 mm 2 m/s 756 mmHg 51%
    10:00 +8°C° 0 mm 2 m/s 756 mmHg 49%
    11:00 +9°C° 0 mm 2 m/s 756 mmHg 47%
    12:00 +11°C° 0 mm 1 m/s 756 mmHg 44%
    13:00 +10°C° 0 mm 2 m/s 756 mmHg 45%
    14:00 +12°C° 0 mm 2 m/s 755 mmHg 46%
    15:00 +12°C° 0 mm 2 m/s 755 mmHg 47%
    16:00 +10°C° 0 mm 2 m/s 755 mmHg 51%
    17:00 +9°C° 0 mm 3 m/s 756 mmHg 56%
    18:00 +8°C° 0 mm 3 m/s 756 mmHg 60%
    19:00 +8°C° 0 mm 3 m/s 756 mmHg 61%
    20:00 +8°C° 0 mm 3 m/s 757 mmHg 62%
    21:00 +7°C° 0 mm 3 m/s 757 mmHg 63%
    22:00 +7°C° 0 mm 3 m/s 757 mmHg 62%
    23:00 +5°C° 0 mm 3 m/s 757 mmHg 61%

    21 Ianuarie, Marţi

    Timp Temperatura Precipitaţii Vânt Presiune Umiditate
    00:00 +5°C° 0 mm 3 m/s 757 mmHg 59%
    01:00 +5°C° 0 mm 3 m/s 757 mmHg 58%
    02:00 +4°C° 0 mm 3 m/s 757 mmHg 56%
    03:00 +4°C° 0 mm 3 m/s 757 mmHg 55%
    04:00 +4°C° 0 mm 3 m/s 758 mmHg 52%
    05:00 +4°C° 0 mm 3 m/s 759 mmHg 50%
    06:00 +3°C° 0 mm 3 m/s 759 mmHg 47%
    07:00 +5°C° 0 mm 4 m/s 760 mmHg 45%
    08:00 +6°C° 0 mm 5 m/s 761 mmHg 43%
    09:00 +7°C° 0 mm 6 m/s 762 mmHg 41%
    10:00 +8°C° 0 mm 5 m/s 762 mmHg 40%
    11:00 +8°C° 0 mm 4 m/s 762 mmHg 39%
    12:00 +10°C° 0 mm 4 m/s 762 mmHg 38%
    13:00 +10°C° 0 mm 3 m/s 763 mmHg 38%
    14:00 +11°C° 0 mm 3 m/s 763 mmHg 38%
    15:00 +12°C° 0 mm 2 m/s 763 mmHg 38%
    16:00 +10°C° 0 mm 2 m/s 764 mmHg 42%
    17:00 +9°C° 0 mm 2 m/s 765 mmHg 46%
    18:00 +8°C° 0 mm 2 m/s 766 mmHg 50%
    19:00 +8°C° 0 mm 3 m/s 766 mmHg 50%
    20:00 +7°C° 0 mm 3 m/s 767 mmHg 50%
    21:00 +7°C° 0 mm 3 m/s 767 mmHg 50%
    22:00 +5°C° 0 mm 3 m/s 767 mmHg 50%
    23:00 +5°C° 0 mm 3 m/s 768 mmHg 50%

    22 Ianuarie, Miercuri

    Timp Temperatura Precipitaţii Vânt Presiune Umiditate
    00:00 +5°C° 0 mm 3 m/s 768 mmHg 49%
    01:00 +4°C° 0 mm 3 m/s 768 mmHg 50%
    02:00 +4°C° 0 mm 3 m/s 768 mmHg 51%
    03:00 +4°C° 0 mm 3 m/s 768 mmHg 52%
    04:00 +4°C° 0 mm 3 m/s 768 mmHg 53%
    05:00 +4°C° 0 mm 3 m/s 768 mmHg 54%
    06:00 +4°C° 0 mm 4 m/s 768 mmHg 55%
    07:00 +4°C° 0 mm 3 m/s 768 mmHg 54%
    08:00 +5°C° 0 mm 3 m/s 768 mmHg 52%
    09:00 +5°C° 0 mm 3 m/s 768 mmHg 51%
    10:00 +7°C° 0 mm 2 m/s 768 mmHg 51%
    11:00 +8°C° 0 mm 2 m/s 767 mmHg 51%
    12:00 +9°C° 0 mm 2 m/s 766 mmHg 52%
    13:00 +10°C° 0 mm 2 m/s 766 mmHg 54%
    14:00 +12°C° 0 mm 2 m/s 765 mmHg 56%
    15:00 +12°C° 0 mm 2 m/s 765 mmHg 58%
    16:00 +11°C° 0 mm 3 m/s 765 mmHg 63%
    17:00 +10°C° 0 mm 3 m/s 765 mmHg 69%
    18:00 +8°C° 0 mm 4 m/s 765 mmHg 74%
    19:00 +9°C° 0 mm 3 m/s 765 mmHg 70%
    20:00 +8°C° 0 mm 3 m/s 765 mmHg 67%
    21:00 +8°C° 0 mm 3 m/s 765 mmHg 63%
    22:00 +8°C° 0 mm 3 m/s 765 mmHg 62%
    23:00 +8°C° 0 mm 2 m/s 765 mmHg 61%

    23 Ianuarie, Joi

    Timp Temperatura Precipitaţii Vânt Presiune Umiditate
    00:00 +8°C° 0 mm 2 m/s 764 mmHg 60%
    01:00 +8°C° 0 mm 2 m/s 764 mmHg 60%
    02:00 +8°C° 0 mm 2 m/s 764 mmHg 60%
    03:00 +7°C° 0 mm 2 m/s 764 mmHg 60%
    04:00 +7°C° 0 mm 2 m/s 764 mmHg 59%
    05:00 +7°C° 0 mm 2 m/s 764 mmHg 59%
    06:00 +7°C° 0 mm 2 m/s 764 mmHg 59%
    07:00 +8°C° 0 mm 2 m/s 764 mmHg 57%
    08:00 +9°C° 0 mm 2 m/s 764 mmHg 56%
    09:00 +10°C° 0 mm 2 m/s 764 mmHg 54%
    10:00 +10°C° 0 mm 2 m/s 763 mmHg 53%
    11:00 +12°C° 0 mm 2 m/s 763 mmHg 53%
    12:00 +13°C° 0 mm 1 m/s 762 mmHg 52%
    13:00 +12°C° 0.2 mm 2 m/s 762 mmHg 60%
    14:00 +12°C° 0.2 mm 2 m/s 761 mmHg 69%
    15:00 +12°C° 0.2 mm 2 m/s 761 mmHg 77%
    16:00 +12°C° 0.2 mm 2 m/s 761 mmHg 80%
    17:00 +12°C° 0.2 mm 2 m/s 761 mmHg 83%
    18:00 +12°C° 0.2 mm 2 m/s 761 mmHg 86%
    19:00 +10°C° 0.2 mm 3 m/s 761 mmHg 78%
    20:00 +10°C° 0.2 mm 4 m/s 761 mmHg 71%
    21:00 +9°C° 0.2 mm 5 m/s 761 mmHg 64%
    22:00 +9°C° 0 mm 5 m/s 761 mmHg 65%
    23:00 +9°C° 0 mm 5 m/s 761 mmHg 65%
    Arată mai mult